Total_Precipitation_Accumulation
1.56 1.36 1.96 2.02 1.70 1.41 1.35 1.40 1.27 1.16 1.18 1.10 0.87 0.79 0.76 0.76 0.68 0.57 0.45 0.38 0.37 0.38 0.42 0.43 0.44 0.46 0.42 0.36 0.38 0.52 0.56 0.48 0.43 0.44 0.56 0.64 0.66 0.75 0.84 0.99 1.30 1.58 1.24
1.29 1.17 1.84 2.04 1.79 1.51 1.32 1.31 1.31 1.22 1.22 1.09 0.94 0.83 0.81 0.77 0.70 0.59 0.44 0.35 0.35 0.35 0.36 0.39 0.44 0.44 0.42 0.44 0.47 0.56 0.53 0.43 0.36 0.43 0.68 0.89 0.82 0.75 0.75 0.87 1.26 1.51 1.20
1.01 0.98 1.42 1.94 1.82 1.53 1.33 1.27 1.29 1.24 1.27 1.18 1.08 0.94 0.84 0.76 0.70 0.59 0.45 0.41 0.41 0.38 0.36 0.39 0.50 0.50 0.46 0.53 0.54 0.54 0.52 0.41 0.38 0.53 0.99 1.72 1.30 0.81 0.75 0.86 1.10 1.03 1.04
0.92 0.91 1.10 1.62 1.58 1.35 1.21 1.23 1.28 1.23 1.31 1.26 1.05 0.87 0.73 0.72 0.74 0.62 0.55 0.60 0.45 0.38 0.37 0.42 0.52 0.55 0.53 0.55 0.57 0.54 0.54 0.53 0.59 0.72 1.21 1.73 1.72 1.09 0.96 1.10 1.11 1.02 1.10
0.93 0.94 1.27 1.63 1.55 1.39 1.24 1.32 1.39 1.31 1.32 1.18 0.91 0.74 0.69 0.72 0.76 0.76 0.76 0.72 0.47 0.39 0.35 0.40 0.50 0.57 0.56 0.55 0.52 0.49 0.50 0.60 0.81 0.95 1.26 1.59 1.88 1.38 1.08 1.17 1.16 1.08 1.19
0.93 0.92 1.18 1.53 1.52 1.41 1.31 1.36 1.40 1.40 1.37 1.25 0.99 0.80 0.76 0.80 0.79 0.77 0.84 0.72 0.59 0.50 0.42 0.45 0.52 0.58 0.55 0.52 0.53 0.50 0.57 0.69 0.81 1.05 1.33 1.65 1.77 1.34 1.05 1.09 1.14 1.24 1.22
0.89 0.84 0.93 1.29 1.37 1.31 1.30 1.44 1.49 1.48 1.46 1.38 1.14 0.97 0.85 0.80 0.79 0.81 0.87 0.75 0.68 0.60 0.56 0.58 0.60 0.60 0.56 0.53 0.49 0.50 0.56 0.61 0.68 0.92 1.16 1.62 1.53 1.17 1.00 1.04 1.09 1.13 1.17
1.04 0.93 0.84 1.08 1.19 1.19 1.24 1.35 1.39 1.39 1.34 1.30 1.12 0.97 0.90 0.86 0.82 0.90 0.96 0.85 0.76 0.67 0.60 0.61 0.63 0.64 0.60 0.56 0.52 0.53 0.55 0.50 0.53 0.73 0.99 1.35 1.37 1.23 1.05 1.07 1.20 1.14 1.16
1.21 1.10 0.93 0.92 1.03 1.20 1.31 1.33 1.27 1.19 1.18 1.14 1.03 0.97 0.91 0.87 0.81 0.84 0.88 0.82 0.81 0.80 0.74 0.67 0.65 0.65 0.61 0.60 0.57 0.58 0.57 0.49 0.56 0.71 0.76 1.17 1.25 1.22 1.06 1.07 1.21 1.25 1.26
1.40 1.19 0.97 0.87 0.91 0.99 1.08 1.19 1.26 1.24 1.19 1.15 1.02 0.91 0.86 0.81 0.72 0.75 0.72 0.69 0.76 0.85 0.91 0.82 0.73 0.69 0.65 0.61 0.58 0.61 0.58 0.46 0.55 0.66 0.82 0.94 1.12 1.20 1.10 0.96 0.95 0.99 1.07
1.18 1.06 1.05 1.01 1.03 1.06 1.01 1.04 1.22 1.28 1.26 1.11 1.02 0.96 0.86 0.67 0.58 0.65 0.61 0.72 0.81 0.95 1.01 0.98 0.90 0.79 0.70 0.60 0.58 0.60 0.50 0.42 0.56 0.67 0.86 0.89 1.11 1.21 1.13 0.96 0.86 0.80 0.87
0.86 0.85 0.89 0.93 1.03 1.06 0.97 1.19 1.40 1.26 1.11 0.89 0.90 0.81 0.79 0.73 0.71 0.59 0.62 0.80 0.93 0.97 0.96 1.00 1.03 0.90 0.70 0.51 0.53 0.52 0.38 0.38 0.46 0.52 0.65 0.90 1.13 1.20 1.15 1.02 0.87 0.76 0.79
0.76 0.75 0.70 0.74 0.83 0.93 1.07 1.33 1.59 1.63 1.40 1.19 0.99 0.91 0.88 0.77 0.69 0.64 0.63 0.69 0.77 0.80 0.71 0.76 0.80 0.67 0.56 0.54 0.56 0.44 0.37 0.40 0.42 0.49 0.65 0.93 1.15 1.20 1.12 1.04 0.98 0.88 0.81
0.61 0.69 0.55 0.50 0.63 0.75 0.87 1.01 1.26 1.34 1.27 1.12 0.94 0.86 0.91 0.86 0.76 0.72 0.69 0.74 0.75 0.73 0.79 0.82 0.86 0.78 0.62 0.55 0.55 0.56 0.50 0.44 0.48 0.59 0.74 0.87 1.15 1.26 1.19 1.13 1.08 0.99 0.93
0.60 0.67 0.62 0.52 0.52 0.56 0.61 0.68 0.79 0.96 1.07 1.06 1.00 0.84 0.83 0.82 0.77 0.79 0.74 0.78 0.71 0.69 0.78 0.84 0.83 0.85 0.76 0.64 0.59 0.60 0.67 0.61 0.57 0.61 0.77 0.90 1.19 1.38 1.45 1.32 1.17 1.10 1.08
0.53 0.66 0.67 0.57 0.52 0.53 0.50 0.49 0.50 0.65 0.79 0.93 0.94 0.83 0.85 0.86 0.81 0.86 0.83 0.83 0.80 0.74 0.78 0.93 0.87 0.91 0.90 0.82 0.66 0.63 0.67 0.64 0.61 0.64 0.74 0.96 1.09 1.17 1.41 1.57 1.45 1.31 1.19
0.48 0.53 0.59 0.56 0.58 0.61 0.60 0.60 0.50 0.54 0.61 0.74 0.86 0.85 0.90 0.85 0.77 0.82 0.85 0.82 0.81 0.83 0.83 0.88 0.91 0.96 0.88 0.82 0.75 0.70 0.68 0.64 0.57 0.63 0.66 0.74 0.73 0.82 1.07 1.35 1.53 1.46 1.36
0.50 0.54 0.58 0.59 0.64 0.69 0.74 0.77 0.70 0.75 0.77 0.78 0.92 0.89 0.84 0.87 0.84 0.84 0.90 0.91 0.95 0.99 0.96 0.97 1.01 1.04 0.99 0.98 0.95 0.89 0.72 0.71 0.64 0.65 0.65 0.65 0.69 0.65 0.77 0.91 1.14 1.27 1.41
0.46 0.47 0.51 0.59 0.63 0.65 0.73 0.86 0.98 1.03 1.02 0.98 1.01 0.97 0.87 0.85 0.91 1.03 1.07 1.12 1.09 1.11 1.13 1.10 1.11 1.05 1.04 1.05 0.98 0.96 0.83 0.79 0.77 0.66 0.73 0.72 0.72 0.67 0.70 0.64 0.71 0.81 1.02
0.36 0.39 0.44 0.52 0.68 0.81 0.89 0.92 1.08 1.13 1.21 1.30 1.35 1.22 1.09 1.10 1.22 1.37 1.46 1.40 1.39 1.38 1.37 1.33 1.41 1.30 1.13 1.12 1.05 0.99 0.86 0.76 0.83 0.80 0.80 0.79 0.82 0.80 0.74 0.64 0.60 0.52 0.62
0.24 0.30 0.36 0.41 0.57 0.71 0.80 0.92 1.11 1.29 1.46 1.62 1.74 1.63 1.49 1.45 1.61 1.72 1.65 1.73 1.77 1.64 1.63 1.68 1.75 1.69 1.44 1.29 1.37 1.26 0.99 0.75 0.82 0.81 0.78 0.82 0.88 0.99 1.01 0.89 0.75 0.67 0.64
0.15 0.20 0.25 0.32 0.43 0.56 0.71 0.94 1.16 1.46 1.55 1.64 1.78 1.82 1.76 1.69 1.84 1.88 1.96 2.02 2.06 2.05 2.01 1.90 1.98 2.07 1.81 1.59 1.70 1.98 1.57 1.16 0.83 0.67 0.76 0.79 0.89 1.13 1.20 1.03 0.85 0.78 0.76
0.11 0.13 0.19 0.30 0.45 0.66 0.89 1.20 1.50 1.73 1.81 1.86 1.82 1.88 1.97 2.02 2.08 2.10 2.16 2.22 2.22 2.07 2.06 2.15 2.24 2.57 2.38 2.03 1.86 2.10 1.89 1.55 1.27 0.86 0.80 0.85 0.94 1.12 1.24 1.27 1.15 1.08 0.98
0.12 0.16 0.27 0.43 0.63 0.90 1.24 1.58 1.82 2.05 2.15 2.00 1.98 2.02 2.03 1.98 2.01 2.12 2.14 2.13 2.10 2.04 2.10 2.16 2.19 2.57 2.75 2.45 2.13 1.80 1.59 1.55 1.60 1.29 0.96 0.91 1.01 1.03 1.15 1.23 1.18 1.24 1.21
0.26 0.33 0.49 0.73 1.02 1.29 1.52 1.70 1.92 2.05 2.07 2.05 2.02 2.01 1.94 1.91 1.87 1.91 1.93 2.01 2.04 2.09 2.14 2.30 2.40 2.62 2.64 2.64 2.47 2.28 2.07 1.77 1.43 1.46 1.40 1.15 1.12 1.04 1.13 1.26 1.30 1.37 1.38
0.42 0.56 0.73 0.91 1.19 1.37 1.48 1.60 1.79 1.94 1.99 2.01 1.99 1.99 1.98 1.95 1.85 1.79 1.76 1.82 1.94 2.11 2.17 2.25 2.38 2.61 2.71 2.79 2.71 2.46 2.36 2.19 1.89 1.77 1.53 1.39 1.38 1.19 1.16 1.19 1.22 1.35 1.49